BBP weather

Bembridge Airport
Bembridge, England, United Kingdom

Public forecast

Using degrees Celsius for public forecast. Weather courtesy of forecast.io.

METAR (pilot weather report)

Closest report is Southampton Airport, 18.8 nm (34.9 km) NNW. Retrieved 2018/04/22 10:20 UTC (0 seconds ago):

EGHI 221020Z 22010KT 190V250 9999 FEW026 18/10 Q1010

TAF (pilot weather forecast)

Forecast is more than 12 hours old.

Closest forecast is Southampton Airport, 18.8 nm (34.9 km) NNW. Retrieved 2016/03/02 12:00 UTC (2 years ago):

TAF EGHI 021104Z 0212/0221 28015G25KT 9999 SCT020 TEMPO 0212/0221 29020G35KT PROB30 TEMPO 0212/0213 4000 SHRA BKN012CB TEMPO 0218/0221 BKN014